Regional Weather Roundup
Issued by NWS

Home | Current Version | Previous Version | Graphics & Text | Print | Product List | Glossary On
Versions: 1 2 3 4 5 6 7 8 9 10 11 12 13 14 15 16 17 18 19 20 21 22 23 24 25 26 27 28 29 30 31 32 33 34 35 36 37 38 39 40 41 42 43 44 45 46 47 48 49 50
000
ASUS45 KSLC 110810
RWRUT

UTAH REGIONAL WEATHER ROUNDUP
NATIONAL WEATHER SERVICE SALT LAKE CITY UT
100 AM MST THU FEB 11 2016

UTZ001>011-023>025-110900-

NORTHERN UTAH

CITY           SKY/WX    TMP DP  RH WIND       PRES   REMARKS
BRIGHAM CITY   CLOUDY    27  25  93 CALM      30.48F VSB 1/2
HILL AFB       FOG       27  25  92 SW2       30.45R VSB 1/4
LOGAN          FOG       22  22 100 SW7       30.47S VSB 1/4 WCI  13
OGDEN          FOG       26  26 100 NW5       30.46R VSB 1/4 WCI  20
PROVO AIRPORT    N/A    N/A N/A N/A CALM      30.45S VSB<1/4
SALT LAKE CITY FOG       30  28  92 NW3       30.47R VSB 1
VERNAL         CLOUDY    13   9  84 W3        30.40F FOG
WENDOVER       CLOUDY    30  27  86 CALM      30.46S
HEBER CITY     PTCLDY     9   5  85 CALM      30.41S FOG
WEST JORDAN    CLOUDY    28  28 100 CALM      30.46S

$$

UTZ012>022-026-027-110900-

SOUTHERN/CENTRAL UTAH

CITY           SKY/WX    TMP DP  RH WIND       PRES   REMARKS
BLANDING       PTCLDY    29  22  77 NW7       30.42F WCI  22
BRYCE CANYON   PTCLDY    13   6  74 W8        30.43F WCI   2
CEDAR CITY     PTCLDY    22  17  81 S3        30.39F
DELTA          CLOUDY     7   5  90 CALM      30.45F VSB 1/4
HANKSVILLE     MOCLDY    28  28 100 CALM      30.41F
MILFORD        FOG        8   6  92 S3        30.42F VSB<1/4
MOAB/CYNLANDS  PTCLDY    25  22  88 CALM      30.38S
PRICE          PTCLDY    24  15  68 NW3       30.36F
ST GEORGE      MOSUNNY   43  25  49 CALM      30.33S
KANAB          CLEAR     32  28  86 NE6       30.37F WCI  26

$$

REGIONAL REPORTS     COLORADO/ARIZONA

CITY           SKY/WX    TMP DP  RH WIND       PRES   REMARKS
CRAIG, CO      CLOUDY    -1  -5  82 CALM      30.39S
GRAND JUNCTION CLOUDY    27  22  81 E9        30.39F WCI  18
RIFLE          CLOUDY    16  10  77 E5        30.42S WCI   9
MONTROSE       CLOUDY    24  17  74 S10       30.42F WCI  14
CORTEZ         CLOUDY    21  16  81 NE6       30.36F WCI  13
PAGE, AZ       CLEAR     38  28  67 CALM      30.35S
GRAND CANYON   PTCLDY    23  16  74 E3        30.38F
KINGMAN        PTCLDY    42  32  67 CALM      30.26S
FLAGSTAFF      PTCLDY    22  17  81 NE3       30.38F

$$

REGIONAL REPORTS    NEVADA/IDAHO/WYOMING

CITY           SKY/WX    TMP DP  RH WIND       PRES   REMARKS
LAS VEGAS, NV  CLEAR     52  27  38 SW5       30.20F
ELY            CLOUDY    18  10  71 S16       30.41F WCI   3
ELKO           CLOUDY    16  11  80 CALM      30.42F
POCATELLO, ID  CLOUDY    19  17  92 N7        30.40S WCI  10
EVANSTON, WY   CLOUDY    26  13  57 SW12      30.38F WCI  16
ROCK SPRINGS   CLOUDY    32  17  54 W18       30.32S WCI  20

$$



USA.gov is the U.S. government's official web portal to all federal, state and local government web resources and services.